Bellingham, Washington, United States (98225)
Lat: 48.76N, Lon: 122.49W
Wx Zone: WAZ503
Local Info
Past Weather Observations for Sunday, April 20, 2014

NOTE: This archive is for the closest National Weather Service station to Bellingham. Information may differ from the station used for current weather conditions.

Time Weather Temperature Dewpoint Humidity Pressure Winds Precip Visibility
23:53
Mostly Cloudy
48°F / 9°C 41°F / 5°C 76% 30.12 in
(1020 mb)
Calm - 10SM
22:53
Clear
46°F / 8°C 41°F / 5°C 82% 30.12 in
(1020 mb)
N 3.5 mph
(N 6 kph)
- 10SM
21:53
Mostly Cloudy
48°F / 9°C 41°F / 5°C 76% 30.12 in
(1020 mb)
NNW 3.5 mph
(NNW 6 kph)
- 10SM
20:53
Clear
50°F / 10°C 41°F / 5°C 71% 30.15 in
(1021 mb)
Calm - 10SM
19:53
Clear
48°F / 9°C 39°F / 4°C 71% 30.15 in
(1021 mb)
NNE 3.5 mph
(NNE 6 kph)
- 10SM
18:53
Clear
52°F / 11°C 39°F / 4°C 62% 30.15 in
(1021 mb)
NNE 5.8 mph
(NNE 9 kph)
- 10SM
17:53
Partly Cloudy
54°F / 12°C 39°F / 4°C 58% 30.18 in
(1022 mb)
NE 6.9 mph
(NE 11 kph)
- 10SM
16:53
Partly Cloudy
57°F / 14°C 37°F / 3°C 48% 30.18 in
(1022 mb)
Calm - 10SM
15:53
Mostly Cloudy
55°F / 13°C 36°F / 2°C 47% 30.21 in
(1023 mb)
S 5.8 mph
(S 9 kph)
- 10SM
14:53
Mostly Cloudy
55°F / 13°C 37°F / 3°C 51% 30.21 in
(1023 mb)
Calm - 10SM
13:53
Partly Cloudy
55°F / 13°C 37°F / 3°C 51% 30.24 in
(1024 mb)
S 9.2 mph
(S 15 kph)
- 10SM
12:53
Overcast
55°F / 13°C 37°F / 3°C 51% 30.24 in
(1024 mb)
Variable 6.9 mph
(Variable 11 kph)
- 10SM
11:53
Partly Cloudy
54°F / 12°C 37°F / 3°C 54% 30.24 in
(1024 mb)
S 9.2 mph
(S 15 kph)
- 10SM
10:53
Clear
55°F / 13°C 37°F / 3°C 51% 30.27 in
(1025 mb)
SE 12.7 mph
(SE 20 kph)
- 10SM
09:53
Mostly Cloudy
54°F / 12°C 39°F / 4°C 58% 30.3 in
(1026 mb)
SSE 10.4 mph
(SSE 17 kph)
- 10SM
08:53
Mostly Cloudy
52°F / 11°C 39°F / 4°C 62% 30.27 in
(1025 mb)
ESE 10.4 mph
(ESE 17 kph)
- 10SM
07:53
Overcast
48°F / 9°C 41°F / 5°C 76% 30.27 in
(1025 mb)
Calm - 10SM
06:53
Mostly Cloudy
46°F / 8°C 39°F / 4°C 76% 30.27 in
(1025 mb)
Calm - 10SM
05:53
Mostly Cloudy
45°F / 7°C 41°F / 5°C 87% 30.24 in
(1024 mb)
Calm - 10SM
04:53
Mostly Cloudy
45°F / 7°C 39°F / 4°C 81% 30.24 in
(1024 mb)
Calm - 10SM
03:53
Overcast
46°F / 8°C 39°F / 4°C 76% 30.24 in
(1024 mb)
S 3.5 mph
(S 6 kph)
- 10SM
02:53
Overcast
48°F / 9°C 39°F / 4°C 71% 30.24 in
(1024 mb)
SSE 8.1 mph
(SSE 13 kph)
- 10SM
01:53
Partly Cloudy
48°F / 9°C 39°F / 4°C 71% 30.21 in
(1023 mb)
S 6.9 mph
(S 11 kph)
- 10SM
00:53
Overcast
48°F / 9°C 37°F / 3°C 66% 30.18 in
(1022 mb)
S 5.8 mph
(S 9 kph)
- 10SM
Time Weather Temperature Dewpoint Humidity Pressure Winds Precip Visibility


Weather for websites

WeatherForYou.com, LLC is not responsible for any damages or problems caused by this service. Current weather conditions are obtained from the closest station including government and personal stations which may have varying degrees of accuracy. Weather forecasts are derived from the NOAA NDFD. Like all things, this site belongs to Jesus Christ... He just trusts me to maintain it. If you have any questions or comments email webmaster@weatherforyou.com

Copyright © 2014, WeatherForYou.com LLC. All rights reserved.